When you browse on this site, cookies collect data to enhance your experience and personalize the content and advertising you see.
Visit our Privacy Policy to learn more. By continuing to use the site, you agree to this use of cookies and data.
  • en Belgique
  • Liste des pays
  • À 7 jours
  • Température de l'eau
  • Carte météo
  • Widgets météo
  • user-avatar
    Se connecter

    Météo par heure à Albany

    Ce jour, 13 Décembre, Vendredi

    Heure Température Précipitation Vent Pression Humidité
    00:00 +15°C° 0 mm 5 m/s 761 mmHg 87%
    01:00 +14°C° 0 mm 5 m/s 761 mmHg 89%
    02:00 +14°C° 0 mm 5 m/s 761 mmHg 93%
    03:00 +14°C° 0 mm 4 m/s 760 mmHg 92%
    04:00 +14°C° 0 mm 4 m/s 760 mmHg 91%
    05:00 +14°C° 0 mm 3 m/s 760 mmHg 91%
    06:00 +18°C° 0 mm 3 m/s 760 mmHg 75%
    07:00 +22°C° 0 mm 3 m/s 760 mmHg 60%
    08:00 +27°C° 0 mm 3 m/s 760 mmHg 44%
    09:00 +29°C° 0 mm 3 m/s 760 mmHg 39%
    10:00 +33°C° 0 mm 3 m/s 760 mmHg 33%
    11:00 +35°C° 0 mm 3 m/s 760 mmHg 28%
    12:00 +34°C° 0 mm 4 m/s 759 mmHg 31%
    13:00 +33°C° 0 mm 5 m/s 758 mmHg 35%
    14:00 +33°C° 0 mm 5 m/s 758 mmHg 38%
    15:00 +32°C° 0 mm 5 m/s 758 mmHg 41%
    16:00 +29°C° 0 mm 5 m/s 758 mmHg 44%
    17:00 +28°C° 0 mm 4 m/s 758 mmHg 47%
    18:00 +26°C° 0 mm 4 m/s 758 mmHg 54%
    19:00 +22°C° 0 mm 3 m/s 758 mmHg 62%
    20:00 +20°C° 0 mm 3 m/s 758 mmHg 68%
    21:00 +20°C° 0 mm 3 m/s 758 mmHg 67%
    22:00 +20°C° 0 mm 3 m/s 758 mmHg 65%
    23:00 +19°C° 0 mm 3 m/s 758 mmHg 64%

    Demain, 14 Décembre, Samedi

    Heure Température Précipitation Vent Pression Humidité
    00:00 +19°C° 0 mm 2 m/s 757 mmHg 63%
    01:00 +19°C° 0 mm 2 m/s 757 mmHg 62%
    02:00 +20°C° 0 mm 1 m/s 756 mmHg 60%
    03:00 +19°C° 0 mm 1 m/s 756 mmHg 59%
    04:00 +19°C° 0 mm 1 m/s 756 mmHg 57%
    05:00 +19°C° 0 mm 1 m/s 756 mmHg 56%
    06:00 +22°C° 0 mm 1 m/s 756 mmHg 48%
    07:00 +26°C° 0 mm 1 m/s 755 mmHg 41%
    08:00 +29°C° 0 mm 1 m/s 755 mmHg 33%
    09:00 +31°C° 0 mm 1 m/s 755 mmHg 30%
    10:00 +34°C° 0 mm 2 m/s 755 mmHg 28%
    11:00 +35°C° 0 mm 3 m/s 755 mmHg 25%
    12:00 +35°C° 0 mm 3 m/s 754 mmHg 27%
    13:00 +34°C° 0 mm 3 m/s 753 mmHg 30%
    14:00 +33°C° 0 mm 4 m/s 753 mmHg 32%
    15:00 +31°C° 0 mm 3 m/s 753 mmHg 34%
    16:00 +30°C° 0 mm 3 m/s 753 mmHg 36%
    17:00 +29°C° 0 mm 2 m/s 752 mmHg 38%
    18:00 +26°C° 0 mm 2 m/s 753 mmHg 47%
    19:00 +24°C° 0 mm 1 m/s 753 mmHg 55%
    20:00 +19°C° 0 mm 0 m/s 753 mmHg 64%
    21:00 +21°C° 0 mm 1 m/s 753 mmHg 64%
    22:00 +20°C° 0 mm 1 m/s 754 mmHg 65%
    23:00 +20°C° 0 mm 1 m/s 754 mmHg 65%

    Après-demain, 15 Décembre, Dimanche

    Heure Température Précipitation Vent Pression Humidité
    00:00 +20°C° 0 mm 1 m/s 753 mmHg 64%
    01:00 +19°C° 0 mm 1 m/s 753 mmHg 63%
    02:00 +19°C° 0 mm 1 m/s 752 mmHg 62%
    03:00 +19°C° 0 mm 1 m/s 752 mmHg 60%
    04:00 +19°C° 0 mm 1 m/s 752 mmHg 57%
    05:00 +19°C° 0 mm 1 m/s 752 mmHg 55%
    06:00 +23°C° 0 mm 1 m/s 751 mmHg 46%
    07:00 +27°C° 0 mm 1 m/s 751 mmHg 37%
    08:00 +31°C° 0 mm 1 m/s 751 mmHg 28%
    09:00 +34°C° 0 mm 2 m/s 751 mmHg 25%
    10:00 +36°C° 0 mm 3 m/s 751 mmHg 22%
    11:00 +38°C° 0 mm 3 m/s 751 mmHg 19%
    12:00 +36°C° 0 mm 4 m/s 750 mmHg 24%
    13:00 +34°C° 0 mm 4 m/s 749 mmHg 29%
    14:00 +30°C° 0 mm 5 m/s 749 mmHg 34%
    15:00 +29°C° 0 mm 5 m/s 749 mmHg 36%
    16:00 +28°C° 0 mm 4 m/s 749 mmHg 39%
    17:00 +27°C° 0 mm 4 m/s 749 mmHg 42%
    18:00 +25°C° 0 mm 3 m/s 750 mmHg 52%
    19:00 +22°C° 0 mm 3 m/s 750 mmHg 62%
    20:00 +20°C° 0 mm 2 m/s 751 mmHg 73%
    21:00 +19°C° 0 mm 2 m/s 751 mmHg 78%
    22:00 +19°C° 0 mm 2 m/s 752 mmHg 82%
    23:00 +18°C° 0 mm 2 m/s 752 mmHg 87%

    16 Décembre, Lundi

    Heure Température Précipitation Vent Pression Humidité
    00:00 +18°C° 0 mm 2 m/s 752 mmHg 88%
    01:00 +18°C° 0 mm 2 m/s 751 mmHg 88%
    02:00 +18°C° 0 mm 2 m/s 750 mmHg 89%
    03:00 +17°C° 0 mm 2 m/s 750 mmHg 89%
    04:00 +17°C° 0 mm 2 m/s 750 mmHg 89%
    05:00 +17°C° 0 mm 2 m/s 750 mmHg 89%
    06:00 +19°C° 0 mm 2 m/s 751 mmHg 78%
    07:00 +21°C° 0 mm 3 m/s 751 mmHg 66%
    08:00 +24°C° 0 mm 3 m/s 751 mmHg 55%
    09:00 +25°C° 0 mm 3 m/s 752 mmHg 53%
    10:00 +26°C° 0 mm 4 m/s 752 mmHg 51%
    11:00 +26°C° 0 mm 5 m/s 752 mmHg 49%
    12:00 +26°C° 0 mm 5 m/s 752 mmHg 50%
    13:00 +26°C° 0 mm 5 m/s 752 mmHg 51%
    14:00 +25°C° 0 mm 5 m/s 752 mmHg 53%
    15:00 +25°C° 0 mm 5 m/s 752 mmHg 57%
    16:00 +23°C° 0 mm 5 m/s 752 mmHg 61%
    17:00 +22°C° 0 mm 5 m/s 753 mmHg 65%
    18:00 +20°C° 0 mm 5 m/s 753 mmHg 73%
    19:00 +19°C° 0 mm 4 m/s 753 mmHg 82%
    20:00 +17°C° 0 mm 3 m/s 754 mmHg 91%
    21:00 +17°C° 0 mm 3 m/s 754 mmHg 92%
    22:00 +17°C° 0 mm 2 m/s 755 mmHg 93%
    23:00 +16°C° 0 mm 2 m/s 755 mmHg 94%

    17 Décembre, Mardi

    Heure Température Précipitation Vent Pression Humidité
    00:00 +16°C° 0 mm 2 m/s 755 mmHg 94%
    01:00 +15°C° 0 mm 1 m/s 755 mmHg 94%
    02:00 +15°C° 0 mm 1 m/s 755 mmHg 93%
    03:00 +15°C° 0 mm 1 m/s 755 mmHg 93%
    04:00 +15°C° 0 mm 1 m/s 755 mmHg 94%
    05:00 +14°C° 0 mm 1 m/s 756 mmHg 94%
    06:00 +18°C° 0 mm 1 m/s 756 mmHg 85%
    07:00 +19°C° 0 mm 2 m/s 756 mmHg 77%
    08:00 +21°C° 0 mm 2 m/s 756 mmHg 69%
    09:00 +23°C° 0 mm 2 m/s 756 mmHg 64%
    10:00 +25°C° 0 mm 3 m/s 756 mmHg 59%
    11:00 +26°C° 0 mm 3 m/s 757 mmHg 54%
    12:00 +26°C° 0 mm 4 m/s 756 mmHg 55%
    13:00 +26°C° 0 mm 4 m/s 756 mmHg 56%
    14:00 +26°C° 0 mm 5 m/s 756 mmHg 57%
    15:00 +25°C° 0 mm 4 m/s 756 mmHg 61%
    16:00 +23°C° 0 mm 4 m/s 757 mmHg 64%
    17:00 +22°C° 0 mm 4 m/s 757 mmHg 68%
    18:00 +21°C° 0 mm 4 m/s 757 mmHg 75%
    19:00 +19°C° 0 mm 3 m/s 758 mmHg 83%
    20:00 +18°C° 0 mm 3 m/s 758 mmHg 90%
    21:00 +17°C° 0 mm 2 m/s 759 mmHg 91%
    22:00 +17°C° 0 mm 2 m/s 759 mmHg 92%
    23:00 +18°C° 0 mm 1 m/s 759 mmHg 93%

    18 Décembre, Mercredi

    Heure Température Précipitation Vent Pression Humidité
    00:00 +16°C° 0 mm 1 m/s 759 mmHg 93%
    01:00 +16°C° 0 mm 2 m/s 759 mmHg 93%
    02:00 +16°C° 0 mm 2 m/s 759 mmHg 93%
    03:00 +16°C° 0 mm 2 m/s 758 mmHg 93%
    04:00 +16°C° 0 mm 2 m/s 758 mmHg 93%
    05:00 +15°C° 0 mm 2 m/s 758 mmHg 93%
    06:00 +18°C° 0 mm 2 m/s 758 mmHg 82%
    07:00 +20°C° 0 mm 3 m/s 758 mmHg 72%
    08:00 +22°C° 0 mm 3 m/s 758 mmHg 61%
    09:00 +25°C° 0 mm 4 m/s 757 mmHg 56%
    10:00 +27°C° 0 mm 5 m/s 757 mmHg 51%
    11:00 +28°C° 0 mm 6 m/s 756 mmHg 46%
    12:00 +28°C° 0 mm 7 m/s 755 mmHg 45%
    13:00 +29°C° 0 mm 7 m/s 754 mmHg 45%
    14:00 +29°C° 0 mm 8 m/s 753 mmHg 45%
    15:00 +28°C° 0 mm 8 m/s 753 mmHg 47%
    16:00 +27°C° 0 mm 8 m/s 752 mmHg 49%
    17:00 +26°C° 0 mm 9 m/s 751 mmHg 51%
    18:00 +23°C° 0 mm 7 m/s 752 mmHg 58%
    19:00 +21°C° 0 mm 5 m/s 752 mmHg 64%
    20:00 +19°C° 0 mm 3 m/s 752 mmHg 71%
    21:00 +19°C° 0 mm 3 m/s 752 mmHg 77%
    22:00 +18°C° 0 mm 4 m/s 752 mmHg 82%
    23:00 +17°C° 0 mm 4 m/s 752 mmHg 87%
    Voir plus